[[{"header":{"parameterUnit":"m.s-1","parameterCategory":1,"la1":30.2991,"la2":30.254,"lo1":-89.0895,"lo2":-89.0444,"dy":0.0017,"dx":0.0017,"nx":28,"ny":28,"refTime":"2023-09-03T03:00:00:Z","depth":0,"parameterNumber":2,"parameterNumberName":"U-component_of_WINDS"},"data":[0,0,0,0,0,0,0,0,0,0,0,0,0,0,0,0,0,0,0,0,0,0,0,0,0,0,0,0,0,0,0,0,0,0,0,0,0,0,0,0,0,0,0,0,0,0,0,0,0,0,0,0,0,0,0,0,0,0,-3.2626,-3.2626,0,-3.2606,-3.2606,-3.2606,-3.2556,-3.2555,-3.2554,-3.2553,-3.2534,-3.2534,-3.2535,0,0,0,0,0,0,0,0,0,0,0,0,0,-3.2624,-3.2624,-3.2626,-3.2626,-3.2626,-3.2606,-3.2606,-3.2605,-3.2557,-3.2555,-3.2554,-3.2553,-3.2534,-3.2534,-3.2535,0,0,0,0,0,0,0,0,0,0,0,0,0,-3.2616,-3.2624,-3.2626,-3.2599,-3.2596,-3.2606,-3.2606,-3.2605,-3.2557,-3.2555,-3.2554,-3.2552,-3.2533,-3.2534,-3.2535,-3.257,0,0,-3.2537,-3.2537,0,0,0,0,0,0,0,0,-3.2617,-3.2616,-3.2603,-3.2601,-3.2598,-3.2582,-3.2598,-3.2594,-3.2557,-3.2572,-3.2553,-3.2552,-3.2551,-3.255,-3.255,-3.2569,-3.2568,-3.2537,-3.2537,-3.2537,-3.2538,0,0,0,0,0,0,0,-3.2617,-3.2617,-3.2618,-3.2603,-3.26,-3.2588,-3.2585,-3.2597,-3.257,-3.257,-3.2567,-3.2565,-3.2549,-3.2549,-3.2549,-3.2568,-3.2537,-3.2537,-3.2538,-3.2538,-3.2615,-3.2617,0,0,0,0,0,0,-3.2622,-3.2618,-3.2619,-3.2617,-3.2604,-3.2589,-3.2586,-3.2589,-3.257,-3.2566,-3.2566,-3.2563,-3.2549,-3.2548,-3.2548,-3.2588,-3.2537,-3.2538,-3.2538,-3.2613,-3.2615,-3.2617,0,0,0,0,0,0,-3.2622,-3.2622,-3.262,-3.2617,-3.2615,-3.2591,-3.2594,-3.2589,-3.2589,-3.2567,-3.2562,-3.2571,-3.2548,-3.2547,-3.2565,-3.2586,-3.2538,-3.2539,-3.2612,-3.2614,-3.2616,-3.2667,0,0,0,0,0,0,-3.2622,-3.2622,-3.2635,-3.2617,-3.2616,-3.2636,-3.2596,-3.259,-3.259,-3.2585,-3.257,-3.2566,-3.2547,-3.2564,-3.2566,-3.2586,-3.2539,-3.2609,-3.2613,-3.2616,-3.2664,-3.2671,-3.2678,0,0,0,0,0,-3.2622,-3.265,-3.2636,-3.2636,-3.2631,-3.2637,-3.2637,-3.2613,-3.2592,-3.2605,-3.2591,-3.2567,-3.2584,-3.2566,-3.2567,-3.2589,-3.2608,-3.2612,-3.2615,-3.266,-3.267,-3.2678,0,0,0,0,0,0,-3.2671,-3.2647,-3.2631,-3.2654,-3.2648,-3.2629,-3.2644,-3.2624,-3.2623,-3.2619,-3.259,-3.2587,-3.2609,-3.2601,-3.2581,-3.2622,-3.2592,-3.2596,-3.2626,-3.2635,-3.2642,-3.2643,-3.254,0,0,0,0,0,-3.2685,-3.2692,-3.2671,-3.2693,-3.2691,-3.2669,-3.267,-3.2653,-3.2646,-3.2643,-3.263,-3.2624,-3.2628,-3.2631,-3.2634,-3.2663,-3.2659,-3.2679,-3.2686,-3.2692,-3.2695,-3.271,-3.2718,-3.2629,-3.2629,-3.2629,0,0,-3.2713,-3.2701,-3.2707,-3.2703,-3.2696,-3.2704,-3.2666,-3.2677,-3.2682,-3.2644,-3.2659,-3.2651,-3.2642,-3.2666,-3.2675,-3.266,-3.2719,-3.2696,-3.2701,-3.2701,-3.2715,-3.2723,-3.2731,-3.2632,-3.2632,-3.2631,0,0,-3.2768,-3.2759,-3.2777,-3.2771,-3.2762,-3.2747,-3.2751,-3.2735,-3.2728,-3.2743,-3.2715,-3.2722,-3.2729,-3.2724,-3.2723,-3.2778,-3.2756,-3.278,-3.2817,-3.2831,-3.2838,-3.2844,-3.2863,-3.2871,-3.2784,-3.2784,-3.2784,0,-3.2803,-3.2814,-3.2789,-3.2801,-3.28,-3.2767,-3.2785,-3.2781,-3.2773,-3.2773,-3.2756,-3.2765,-3.2757,-3.2779,-3.2793,-3.2793,-3.2797,-3.2781,-3.2839,-3.2845,-3.285,-3.2868,-3.2876,-3.2787,-3.2787,-3.2786,-3.2786,0,-3.2859,-3.2867,-3.2882,-3.2875,-3.2876,-3.2892,-3.287,-3.2874,-3.2858,-3.2845,-3.2861,-3.2851,-3.285,-3.2855,-3.2838,-3.2875,-3.2865,-3.2845,-3.2813,-3.2862,-3.2878,-3.2885,-3.2791,-3.279,-3.2789,-3.2789,0,0,-3.2942,-3.2922,-3.2928,-3.2924,-3.2912,-3.2917,-3.2932,-3.2932,-3.2936,-3.2932,-3.2943,-3.2952,-3.2932,-3.2931,-3.2914,-3.2927,-3.2971,-3.2905,-3.2904,-3.2917,-3.301,-3.3025,-3.3033,-3.2957,-3.2958,-3.2959,-3.3011,0,-3.2993,-3.3015,-3.2993,-3.302,-3.3027,-3.2996,-3.3009,-3.3003,-3.2992,-3.2997,-3.2985,-3.2991,-3.2965,-3.2964,-3.2976,-3.2963,-3.2989,-3.296,-3.2967,-3.2967,-3.2968,-3.3042,-3.3057,-3.3106,-3.3017,-3.3018,-3.3019,0,-3.3054,-3.3053,-3.308,-3.3066,-3.3069,-3.308,-3.3079,-3.3084,-3.3077,-3.3068,-3.3067,-3.3047,-3.3061,-3.3032,-3.305,-3.3031,-3.3033,-3.3027,-3.3029,-3.3027,-3.2995,-3.3041,-3.3121,-3.3128,-3.3029,-3.3028,-3.3027,0,-3.3111,-3.3117,-3.3133,-3.3132,-3.3116,-3.3125,-3.3119,-3.3111,-3.3113,-3.3112,-3.3113,-3.3114,-3.3114,-3.3116,-3.3097,-3.3078,-3.3118,-3.3087,-3.311,-3.3111,-3.3119,-3.3118,-3.3199,-3.3123,-3.3123,-3.3122,-3.3122,0,-3.3169,-3.3187,-3.3159,-3.3169,-3.3188,-3.3165,-3.3185,-3.3176,-3.3169,-3.3177,-3.3152,-3.316,-3.3135,-3.3141,-3.3127,-3.3144,-3.3145,-3.3138,-3.3134,-3.3139,-3.314,-3.3139,-3.3135,-3.3124,-3.3124,-3.3124,-3.3123,0,-3.3235,-3.3217,-3.3234,-3.3218,-3.3215,-3.323,-3.3217,-3.3226,-3.3214,-3.3225,-3.3226,-3.3207,-3.3213,-3.3195,-3.3198,-3.3189,-3.3214,-3.3204,-3.3216,-3.3212,-3.3236,-3.3234,-3.3318,-3.3327,-3.3247,-3.3247,-3.3248,0,-3.3273,-3.3286,-3.3272,-3.3275,-3.3271,-3.3277,-3.3279,-3.3257,-3.3259,-3.3253,-3.3263,-3.3268,-3.3269,-3.3281,-3.3267,-3.327,-3.326,-3.3289,-3.326,-3.3266,-3.3259,-3.3258,-3.3259,-3.3295,-3.3296,-3.3297,-3.3297,0,-3.3341,-3.3332,-3.3335,-3.3335,-3.3338,-3.3337,-3.3334,-3.3339,-3.3315,-3.332,-3.3326,-3.3327,-3.3331,-3.3335,-3.3335,-3.333,-3.331,-3.3307,-3.3312,-3.3318,-3.3323,-3.332,-3.3231,-3.3305,-3.3304,-3.3304,-3.3303,-3.3303,-3.3394,-3.3404,-3.3395,-3.34,-3.3396,-3.3394,-3.3402,-3.3391,-3.3395,-3.3396,-3.3383,-3.3392,-3.3386,-3.3384,-3.3381,-3.3387,-3.3374,-3.3382,-3.3383,-3.3385,-3.3389,-3.3324,-3.3387,-3.3387,-3.3387,-3.3387,-3.3387,0,-3.346,-3.3453,-3.3458,-3.3455,-3.3459,-3.344,-3.3437,-3.3441,-3.3449,-3.3445,-3.3447,-3.3454,-3.3459,-3.3446,-3.3449,-3.3457,-3.3448,-3.3458,-3.3457,-3.3456,-3.3401,-3.3396,-3.3465,-3.3465,-3.3465,-3.3465,-3.3465,-3.3465,-3.3495,-3.3511,-3.3501,-3.3515,-3.3508,-3.3516,-3.3516,-3.3514,-3.3511,-3.352,-3.3523,-3.3515,-3.3508,-3.351,-3.3514,-3.351,-3.3512,-3.3525,-3.3518,-3.3467,-3.346,-3.3452,-3.3447,-3.3526,-3.3526,-3.3572,-3.3572,-3.3573]},{"header":{"parameterUnit":"m.s-1","parameterCategory":1,"la1":30.2991,"la2":30.254,"lo1":-89.0895,"lo2":-89.0444,"dy":0.0017,"dx":0.0017,"nx":28,"ny":28,"refTime":"2023-09-03T03:00:00:Z","depth":0,"parameterNumber":3,"parameterNumberName":"V-component_of_WINDS"},"data":[0,0,0,0,0,0,0,0,0,0,0,0,0,0,0,0,0,0,0,0,0,0,0,0,0,0,0,0,0,0,0,0,0,0,0,0,0,0,0,0,0,0,0,0,0,0,0,0,0,0,0,0,0,0,0,0,0,0,5.442,5.4421,0,5.447,5.4471,5.4471,5.4458,5.4457,5.4456,5.4455,5.4503,5.4506,5.4508,0,0,0,0,0,0,0,0,0,0,0,0,0,5.4311,5.4313,5.442,5.4421,5.4422,5.447,5.4471,5.4472,5.4458,5.4457,5.4456,5.4455,5.4503,5.4505,5.4508,0,0,0,0,0,0,0,0,0,0,0,0,0,5.4359,5.4313,5.442,5.4421,5.4421,5.447,5.4471,5.4472,5.4458,5.4457,5.4455,5.4454,5.4502,5.4505,5.4508,5.4559,0,0,5.4518,5.452,0,0,0,0,0,0,0,0,5.4356,5.4363,5.442,5.4421,5.4422,5.4456,5.445,5.4501,5.4459,5.4444,5.4455,5.4453,5.4489,5.4493,5.4506,5.4561,5.4563,5.4519,5.4521,5.4522,5.4523,0,0,0,0,0,0,0,5.4353,5.4361,5.444,5.4421,5.4422,5.4418,5.4423,5.4459,5.4474,5.4445,5.4445,5.4451,5.4489,5.4502,5.4507,5.4564,5.4519,5.4522,5.4524,5.4525,5.4661,5.4663,0,0,0,0,0,0,5.4349,5.4358,5.4438,5.4442,5.4385,5.4421,5.4427,5.4447,5.4474,5.4477,5.4452,5.445,5.4497,5.4503,5.4508,5.4568,5.4522,5.4525,5.4527,5.466,5.4662,5.4664,0,0,0,0,0,0,5.4347,5.4357,5.4436,5.44,5.441,5.4424,5.4447,5.4448,5.4462,5.4479,5.4481,5.4463,5.4497,5.4504,5.4546,5.457,5.4527,5.453,5.4658,5.466,5.4663,5.4689,0,0,0,0,0,0,5.4344,5.4356,5.4376,5.44,5.4412,5.4475,5.4448,5.4451,5.4468,5.4466,5.449,5.4493,5.4496,5.4541,5.4549,5.4574,5.4532,5.4656,5.4659,5.4662,5.4686,5.4692,5.4698,0,0,0,0,0,5.434,5.4381,5.4377,5.4387,5.4437,5.4476,5.4482,5.4486,5.447,5.449,5.45,5.4492,5.4566,5.4546,5.4555,5.458,5.4654,5.4658,5.4662,5.4684,5.4691,5.4698,0,0,0,0,0,0,5.4359,5.4384,5.438,5.4431,5.4451,5.4474,5.4499,5.4494,5.4519,5.4516,5.4518,5.4524,5.4567,5.4578,5.4555,5.463,5.4608,5.4613,5.4622,5.4629,5.4634,5.463,5.4535,0,0,0,0,0,5.4369,5.4399,5.442,5.4462,5.4473,5.4484,5.4501,5.4502,5.4523,5.4532,5.4545,5.4566,5.4593,5.4612,5.4638,5.4688,5.4692,5.471,5.4715,5.472,5.4725,5.4751,5.4759,5.4676,5.4676,5.4676,0,0,5.4389,5.4407,5.4426,5.4466,5.4482,5.4513,5.4491,5.4525,5.4547,5.4536,5.4578,5.4588,5.4611,5.4657,5.4678,5.4667,5.4749,5.4725,5.4728,5.4731,5.4756,5.4764,5.4771,5.4678,5.4678,5.4677,0,0,5.4443,5.446,5.4497,5.4514,5.4539,5.4546,5.4555,5.4578,5.4585,5.4626,5.4619,5.4645,5.4693,5.4709,5.4724,5.4783,5.4775,5.4791,5.482,5.4846,5.4852,5.4858,5.4879,5.4886,5.4796,5.4796,5.4796,0,5.4465,5.4512,5.4516,5.455,5.4567,5.456,5.4597,5.4612,5.4645,5.4656,5.4644,5.4704,5.4718,5.4768,5.4782,5.4794,5.4804,5.4788,5.4851,5.4857,5.4863,5.4882,5.489,5.4798,5.4797,5.4797,5.4797,0,5.4538,5.457,5.4597,5.4629,5.4649,5.4684,5.4693,5.4712,5.4712,5.472,5.4761,5.4779,5.4808,5.482,5.4819,5.487,5.4862,5.4851,5.4828,5.4872,5.4891,5.4898,5.48,5.4799,5.4799,5.4798,0,0,5.4605,5.4639,5.4648,5.4662,5.4689,5.4714,5.4748,5.4778,5.4794,5.4816,5.4845,5.4885,5.4874,5.4891,5.4892,5.4914,5.4959,5.49,5.49,5.491,5.5015,5.5023,5.5032,5.4955,5.4956,5.4957,5.5013,0,5.4661,5.4722,5.4726,5.4781,5.4811,5.4804,5.4834,5.4853,5.4861,5.4886,5.4895,5.4923,5.4907,5.4917,5.4939,5.4949,5.498,5.4945,5.498,5.4981,5.4974,5.5041,5.5051,5.5102,5.502,5.5021,5.5022,0,5.4734,5.4759,5.4817,5.4839,5.4852,5.4879,5.4906,5.493,5.4951,5.4956,5.4974,5.4971,5.5005,5.4982,5.5028,5.5004,5.5018,5.5025,5.5027,5.5031,5.5004,5.5046,5.5119,5.5126,5.5033,5.5033,5.5032,0,5.4776,5.4825,5.4866,5.4878,5.4905,5.4924,5.4936,5.4955,5.4973,5.4996,5.5007,5.5034,5.5048,5.5068,5.5073,5.5055,5.5119,5.5096,5.5123,5.5123,5.5136,5.5135,5.5212,5.5146,5.5146,5.5146,5.5146,0,5.4838,5.4874,5.4885,5.491,5.495,5.4954,5.4992,5.5003,5.502,5.5046,5.5041,5.5066,5.507,5.5096,5.5099,5.5136,5.5143,5.5147,5.5147,5.5147,5.5147,5.5157,5.5153,5.5148,5.5147,5.5147,5.5147,0,5.4892,5.4901,5.4945,5.4967,5.4974,5.5002,5.502,5.5043,5.5051,5.5084,5.5092,5.5104,5.5133,5.5139,5.5174,5.5176,5.5221,5.5218,5.5214,5.5213,5.524,5.5237,5.5325,5.5337,5.5263,5.5264,5.5265,0,5.4931,5.4959,5.4983,5.5001,5.5014,5.5043,5.506,5.5065,5.5083,5.5109,5.5129,5.5158,5.5181,5.5228,5.5239,5.5265,5.5263,5.5292,5.5267,5.5266,5.5263,5.5261,5.5263,5.5297,5.5297,5.5298,5.5299,0,5.4999,5.5002,5.5028,5.5056,5.5078,5.5099,5.512,5.5135,5.5142,5.5163,5.5193,5.5211,5.5247,5.5275,5.5301,5.5312,5.5306,5.5306,5.5314,5.5314,5.5311,5.5313,5.5227,5.5304,5.5304,5.5303,5.5303,5.5303,5.5046,5.507,5.5091,5.5121,5.5137,5.5156,5.5179,5.519,5.5216,5.5245,5.5246,5.5279,5.5298,5.5333,5.5345,5.537,5.5361,5.5372,5.5375,5.5377,5.538,5.5307,5.5375,5.5375,5.5375,5.5375,5.5374,0,5.5113,5.5127,5.5154,5.5183,5.5206,5.5199,5.5222,5.5241,5.527,5.5289,5.5312,5.5346,5.5374,5.5387,5.5413,5.5431,5.5429,5.5438,5.5436,5.5439,5.5387,5.5377,5.5439,5.5439,5.5439,5.5439,5.5439,5.5439,5.5151,5.5191,5.5196,5.5244,5.5256,5.5289,5.5303,5.532,5.5335,5.5374,5.5397,5.5405,5.5421,5.5449,5.5474,5.5477,5.5486,5.5497,5.5498,5.5449,5.5443,5.5436,5.5428,5.5499,5.5499,5.5549,5.5549,5.5549]}]]